This is the latest recevied weather packets stored in our database for station/object DL9RAN-11. If no packets are shown the sender has not sent any weather packets the latest 10 day(s).
| Time | Temp. | Humidity | Pressure | Rain* | Wind** | Luminosity | Snow |
|---|---|---|---|---|---|---|---|
| 1777193070 | 18.33° C | 41% | 1025.4 hPa | - | - | - | - |
| 1777192439 | 18.33° C | 40% | 1025.3 hPa | - | - | - | - |
| 1777191807 | 17.78° C | 42% | 1025.3 hPa | - | - | - | - |
| 1777190182 | 17.22° C | 43% | 1025 hPa | - | - | - | - |
| 1777189551 | 16.67° C | 44% | 1025.1 hPa | - | - | - | - |
| 1777189250 | 15.56° C | 44% | 1025.1 hPa | - | - | - | - |
| 1777188950 | 15.56° C | 44% | 1025 hPa | - | - | - | - |
| 1777188318 | 15.56° C | 45% | 1024.7 hPa | - | - | - | - |
| 1777186363 | 13.89° C | 48% | 1024.7 hPa | - | - | - | - |
| 1777186062 | 13.33° C | 48% | 1024.7 hPa | - | - | - | - |
| 1777184769 | 12.78° C | 49% | 1024.2 hPa | - | - | - | - |
| 1777184137 | 11.67° C | 50% | 1024.2 hPa | - | - | - | - |
| 1777183837 | 11.67° C | 50% | 1024.2 hPa | - | - | - | - |
| 1777182543 | 10.56° C | 50% | 1023.9 hPa | - | - | - | - |
| 1777182243 | 10° C | 51% | 1023.9 hPa | - | - | - | - |
| 1777181942 | 10° C | 51% | 1023.9 hPa | - | - | - | - |
| 1777181311 | 10° C | 50% | 1023.7 hPa | - | - | - | - |
| 1777180679 | 9.44° C | 50% | 1023.7 hPa | - | - | - | - |
| 1777180379 | 9.44° C | 50% | 1023.5 hPa | - | - | - | - |
| 1777180079 | 9.44° C | 50% | 1023.5 hPa | - | - | - | - |
| 1777179447 | 8.89° C | 50% | 1023.3 hPa | - | - | - | - |
| 1777179147 | 8.89° C | 49% | 1023.1 hPa | - | - | - | - |
| 1777178516 | 8.89° C | 49% | 1023.1 hPa | - | - | - | - |
| 1777178215 | 8.89° C | 49% | 1022.9 hPa | - | - | - | - |
| 1777177915 | 8.89° C | 48% | 1022.9 hPa | - | - | - | - |
* Rain since midnight (hover to see other rain measurements)
** Current wind speed in m/s (hover to see current wind gust speed)